[[{"header":{"parameterUnit":"m.s-1","parameterCategory":1,"la1":30.2991,"la2":30.254,"lo1":-89.0895,"lo2":-89.0444,"dy":0.0017,"dx":0.0017,"nx":28,"ny":28,"refTime":"2026-01-09T03:00:00:Z","depth":0,"parameterNumber":2,"parameterNumberName":"U-component_of_WINDS"},"data":[0,0,0,0,0,0,0,0,0,0,0,0,0,0,0,0,0,0,0,0,0,0,0,0,0,0,0,0,0,0,0,0,0,0,0,0,0,0,0,0,0,0,0,0,0,0,0,0,0,0,0,0,0,0,0,0,0,0,-2.2632,-2.2633,0,-2.2781,-2.2783,-2.2784,-2.2843,-2.2843,-2.2842,-2.2842,-2.2996,-2.3001,-2.3005,0,0,0,0,0,0,0,0,0,0,0,0,0,-2.2397,-2.2401,-2.2631,-2.2633,-2.2635,-2.2781,-2.2783,-2.2785,-2.2843,-2.2843,-2.2842,-2.2842,-2.2995,-2.3,-2.3005,0,0,0,0,0,0,0,0,0,0,0,0,0,-2.2518,-2.2403,-2.2631,-2.2682,-2.2688,-2.278,-2.2783,-2.2785,-2.2843,-2.2843,-2.2842,-2.2841,-2.2993,-2.3,-2.3006,-2.306,0,0,-2.3027,-2.303,0,0,0,0,0,0,0,0,-2.2511,-2.2527,-2.2672,-2.2678,-2.2685,-2.2793,-2.2757,-2.2878,-2.2843,-2.2784,-2.2842,-2.2841,-2.2929,-2.2941,-2.2971,-2.3067,-2.3074,-2.3027,-2.3031,-2.3034,-2.3036,0,0,0,0,0,0,0,-2.2503,-2.2521,-2.2691,-2.2674,-2.2682,-2.2697,-2.2714,-2.278,-2.2858,-2.2789,-2.2794,-2.2811,-2.2933,-2.2964,-2.2975,-2.3076,-2.3027,-2.3033,-2.3037,-2.304,-2.3224,-2.3225,0,0,0,0,0,0,-2.2486,-2.2513,-2.2686,-2.2695,-2.2595,-2.2702,-2.272,-2.2759,-2.2858,-2.2872,-2.2811,-2.2813,-2.2953,-2.2967,-2.298,-2.3049,-2.3034,-2.3041,-2.3045,-2.3223,-2.3224,-2.3225,0,0,0,0,0,0,-2.2481,-2.2501,-2.268,-2.2606,-2.2629,-2.2707,-2.2749,-2.2762,-2.2794,-2.2874,-2.2889,-2.2829,-2.2953,-2.2971,-2.304,-2.3055,-2.3044,-2.305,-2.3222,-2.3224,-2.3225,-2.3188,0,0,0,0,0,0,-2.2474,-2.2498,-2.2519,-2.2606,-2.2633,-2.2736,-2.275,-2.2765,-2.2805,-2.2809,-2.2894,-2.2908,-2.2954,-2.3029,-2.3046,-2.3065,-2.3055,-2.3221,-2.3223,-2.3225,-2.3188,-2.3188,-2.3187,0,0,0,0,0,-2.2465,-2.2503,-2.252,-2.2541,-2.2661,-2.2737,-2.2753,-2.2804,-2.2806,-2.2828,-2.2879,-2.2905,-2.3051,-2.3036,-2.3055,-2.3076,-2.3221,-2.3223,-2.3224,-2.3188,-2.3188,-2.3187,0,0,0,0,0,0,-2.2418,-2.2516,-2.2535,-2.2602,-2.2661,-2.2747,-2.2776,-2.2802,-2.2862,-2.2863,-2.2924,-2.2943,-2.3007,-2.3049,-2.303,-2.3133,-2.3138,-2.3144,-2.3103,-2.3104,-2.3103,-2.3092,-2.3061,0,0,0,0,0,-2.2415,-2.2468,-2.2551,-2.2602,-2.2631,-2.2698,-2.2733,-2.2767,-2.2831,-2.2856,-2.2913,-2.2973,-2.3033,-2.3071,-2.313,-2.3195,-2.3214,-2.3218,-2.3218,-2.3217,-2.3222,-2.3259,-2.3262,-2.3232,-2.3232,-2.3232,0,0,-2.241,-2.247,-2.25,-2.2594,-2.2644,-2.2697,-2.2718,-2.2775,-2.2815,-2.2865,-2.2933,-2.2976,-2.3048,-2.3115,-2.3147,-2.3152,-2.3234,-2.322,-2.3219,-2.3224,-2.3261,-2.3264,-2.3266,-2.3233,-2.3233,-2.3233,0,0,-2.2428,-2.2479,-2.2527,-2.2576,-2.265,-2.2695,-2.2706,-2.2788,-2.2819,-2.2888,-2.2926,-2.2976,-2.3077,-2.3127,-2.3165,-2.3202,-2.3228,-2.3219,-2.3218,-2.3253,-2.3255,-2.3258,-2.327,-2.3274,-2.3223,-2.3223,-2.3223,0,-2.2413,-2.2495,-2.2549,-2.2603,-2.2643,-2.269,-2.2739,-2.2784,-2.2874,-2.2901,-2.2904,-2.3032,-2.3084,-2.3162,-2.3171,-2.3201,-2.3216,-2.321,-2.3251,-2.3254,-2.3257,-2.3269,-2.3274,-2.3222,-2.3222,-2.3222,-2.3222,0,-2.2472,-2.2529,-2.2559,-2.2643,-2.2687,-2.2739,-2.28,-2.2838,-2.2869,-2.2913,-2.2983,-2.3047,-2.3119,-2.3141,-2.3172,-2.3224,-2.3224,-2.3239,-2.3244,-2.3257,-2.327,-2.3275,-2.322,-2.322,-2.3221,-2.3221,0,0,-2.2465,-2.2578,-2.2588,-2.2627,-2.2712,-2.2757,-2.2811,-2.2881,-2.2912,-2.2973,-2.3019,-2.3104,-2.3117,-2.3161,-2.3198,-2.3229,-2.3253,-2.324,-2.3242,-2.3239,-2.3315,-2.3303,-2.3308,-2.3271,-2.3272,-2.3273,-2.3309,0,-2.2494,-2.2591,-2.2641,-2.2716,-2.2769,-2.2814,-2.2861,-2.2918,-2.2961,-2.3012,-2.306,-2.3119,-2.3132,-2.3159,-2.3192,-2.3243,-2.3269,-2.3242,-2.3315,-2.3317,-2.3295,-2.3315,-2.3303,-2.3333,-2.3314,-2.3315,-2.3316,0,-2.2541,-2.26,-2.2681,-2.2759,-2.2783,-2.2824,-2.2893,-2.2941,-2.3007,-2.3036,-2.3085,-2.3121,-2.3179,-2.3181,-2.3262,-2.3242,-2.3276,-2.3306,-2.3308,-2.3316,-2.3317,-2.3323,-2.3344,-2.3348,-2.3324,-2.3324,-2.3323,0,-2.2526,-2.2626,-2.2687,-2.2719,-2.2813,-2.284,-2.2881,-2.2946,-2.2985,-2.3046,-2.3072,-2.3138,-2.3174,-2.3225,-2.3278,-2.3275,-2.3354,-2.3361,-2.338,-2.3379,-2.3395,-2.3393,-2.342,-2.3417,-2.3417,-2.3416,-2.3416,0,-2.2553,-2.2601,-2.2682,-2.2719,-2.2774,-2.2831,-2.2884,-2.2928,-2.2986,-2.3033,-2.3076,-2.312,-2.3187,-2.3239,-2.3282,-2.3342,-2.3359,-2.3384,-2.3394,-2.338,-2.3376,-2.3402,-2.3401,-2.3418,-2.3417,-2.3417,-2.3417,0,-2.2546,-2.2602,-2.2672,-2.2754,-2.2776,-2.2813,-2.2884,-2.2922,-2.2967,-2.3026,-2.3043,-2.3114,-2.3178,-2.3236,-2.332,-2.3349,-2.341,-2.3424,-2.3388,-2.3393,-2.3409,-2.3407,-2.3454,-2.3463,-2.3453,-2.3453,-2.3453,0,-2.2559,-2.2597,-2.2683,-2.2717,-2.2756,-2.2811,-2.2851,-2.2909,-2.2949,-2.3027,-2.3056,-2.3123,-2.3179,-2.3278,-2.3338,-2.3403,-2.3418,-2.343,-2.3428,-2.3412,-2.3418,-2.3415,-2.3419,-2.3429,-2.3429,-2.3429,-2.3428,0,-2.2577,-2.2602,-2.2658,-2.2723,-2.2769,-2.2824,-2.288,-2.2905,-2.2974,-2.3017,-2.3082,-2.3125,-2.3211,-2.3277,-2.3349,-2.3391,-2.3421,-2.3429,-2.3437,-2.3422,-2.3399,-2.3411,-2.3385,-2.3427,-2.3427,-2.3427,-2.3427,-2.3427,-2.258,-2.2615,-2.2681,-2.2741,-2.2789,-2.284,-2.288,-2.293,-2.2985,-2.3059,-2.309,-2.3156,-2.3221,-2.3321,-2.3363,-2.3416,-2.3422,-2.3433,-2.3436,-2.3438,-2.3435,-2.339,-2.3429,-2.3429,-2.3429,-2.3429,-2.3429,0,-2.2599,-2.2643,-2.2698,-2.2775,-2.2822,-2.2846,-2.2909,-2.2947,-2.3004,-2.3063,-2.3117,-2.3192,-2.3255,-2.332,-2.3387,-2.3417,-2.3433,-2.3433,-2.3431,-2.344,-2.3426,-2.3412,-2.3419,-2.3419,-2.3419,-2.3419,-2.3419,-2.3419,-2.2614,-2.2675,-2.2708,-2.2793,-2.2838,-2.2902,-2.2936,-2.2983,-2.303,-2.3111,-2.3164,-2.3205,-2.3267,-2.3339,-2.3398,-2.3416,-2.3438,-2.3435,-2.3456,-2.3441,-2.3441,-2.3441,-2.3429,-2.3439,-2.3439,-2.3466,-2.3466,-2.3466]},{"header":{"parameterUnit":"m.s-1","parameterCategory":1,"la1":30.2991,"la2":30.254,"lo1":-89.0895,"lo2":-89.0444,"dy":0.0017,"dx":0.0017,"nx":28,"ny":28,"refTime":"2026-01-09T03:00:00:Z","depth":0,"parameterNumber":3,"parameterNumberName":"V-component_of_WINDS"},"data":[0,0,0,0,0,0,0,0,0,0,0,0,0,0,0,0,0,0,0,0,0,0,0,0,0,0,0,0,0,0,0,0,0,0,0,0,0,0,0,0,0,0,0,0,0,0,0,0,0,0,0,0,0,0,0,0,0,0,3.3794,3.3795,0,3.3889,3.389,3.3891,3.3913,3.3912,3.3911,3.3911,3.4004,3.4007,3.401,0,0,0,0,0,0,0,0,0,0,0,0,0,3.3626,3.3629,3.3793,3.3795,3.3796,3.3889,3.389,3.3892,3.3913,3.3912,3.3911,3.391,3.4003,3.4007,3.4011,0,0,0,0,0,0,0,0,0,0,0,0,0,3.3708,3.363,3.3793,3.3818,3.3821,3.3889,3.389,3.3892,3.3913,3.3912,3.3911,3.391,3.4002,3.4007,3.4011,3.406,0,0,3.4026,3.4028,0,0,0,0,0,0,0,0,3.3703,3.3714,3.3813,3.3816,3.382,3.3888,3.3866,3.3948,3.3913,3.3878,3.3911,3.3909,3.3966,3.3974,3.3994,3.4065,3.4069,3.4026,3.4029,3.4031,3.4032,0,0,0,0,0,0,0,3.3698,3.371,3.3831,3.3814,3.3819,3.3823,3.3834,3.3882,3.3926,3.3881,3.3883,3.3894,3.3968,3.3989,3.3996,3.407,3.4026,3.403,3.4033,3.4035,3.4189,3.419,0,0,0,0,0,0,3.3688,3.3705,3.3828,3.3834,3.3758,3.3827,3.3839,3.3867,3.3926,3.3934,3.3895,3.3894,3.3982,3.3991,3.3999,3.4063,3.4031,3.4035,3.4038,3.4187,3.4189,3.419,0,0,0,0,0,0,3.3685,3.3699,3.3824,3.377,3.3787,3.3831,3.3863,3.387,3.3891,3.3936,3.3944,3.3909,3.3981,3.3993,3.4046,3.4067,3.4037,3.4042,3.4186,3.4188,3.419,3.419,0,0,0,0,0,0,3.368,3.3698,3.3717,3.3771,3.3789,3.387,3.3864,3.3872,3.39,3.39,3.3952,3.3959,3.3981,3.4039,3.4051,3.4073,3.4045,3.4184,3.4187,3.4189,3.4188,3.4191,3.4194,0,0,0,0,0,3.3674,3.3712,3.3718,3.3733,3.3815,3.3871,3.3882,3.3908,3.3901,3.3921,3.3951,3.3957,3.4062,3.4044,3.4058,3.4081,3.4183,3.4186,3.4189,3.4187,3.4191,3.4194,0,0,0,0,0,0,3.3658,3.3719,3.3727,3.3784,3.3822,3.3875,3.3901,3.3911,3.3952,3.395,3.398,3.3991,3.4043,3.4067,3.4046,3.4133,3.4122,3.4128,3.4116,3.412,3.4123,3.4117,3.4049,0,0,0,0,0,3.3661,3.3703,3.3753,3.3799,3.3818,3.3856,3.3881,3.3899,3.3939,3.3955,3.3988,3.4027,3.4069,3.4095,3.4136,3.4191,3.4203,3.4214,3.4217,3.4219,3.4224,3.4258,3.4264,3.42,3.42,3.42,0,0,3.3668,3.3707,3.3731,3.3797,3.3829,3.3871,3.387,3.3913,3.3945,3.3961,3.4015,3.404,3.4085,3.414,3.4166,3.4162,3.4245,3.4223,3.4224,3.4228,3.4261,3.4267,3.4273,3.4202,3.4202,3.4201,0,0,3.3703,3.3735,3.3778,3.3811,3.386,3.3886,3.3896,3.3947,3.3966,3.402,3.4034,3.4071,3.4142,3.4174,3.4199,3.4248,3.4257,3.426,3.4277,3.4309,3.4314,3.4319,3.4338,3.4345,3.4265,3.4265,3.4265,0,3.3705,3.377,3.3798,3.3843,3.3872,3.3891,3.3935,3.3964,3.4023,3.4043,3.4037,3.4129,3.4159,3.4224,3.4236,3.4255,3.4268,3.4255,3.4311,3.4316,3.4321,3.434,3.4347,3.4265,3.4265,3.4265,3.4265,0,3.3772,3.3817,3.3845,3.3905,3.3937,3.398,3.4015,3.4043,3.4058,3.4084,3.4139,3.4177,3.4228,3.4243,3.4257,3.431,3.4306,3.4306,3.4296,3.4327,3.4346,3.4353,3.4266,3.4266,3.4265,3.4265,0,0,3.3799,3.3876,3.3886,3.3914,3.397,3.4005,3.405,3.4101,3.4126,3.4166,3.4205,3.4265,3.4266,3.4295,3.4312,3.434,3.4379,3.4336,3.4337,3.4345,3.4442,3.4444,3.4452,3.4384,3.4385,3.4387,3.4439,0,3.3843,3.3926,3.3953,3.4021,3.4064,3.4083,3.4122,3.416,3.4186,3.4225,3.4252,3.4296,3.4292,3.431,3.4338,3.4368,3.4399,3.4364,3.4421,3.4423,3.4412,3.4462,3.4463,3.4512,3.4447,3.4448,3.4449,0,3.3905,3.3949,3.4022,3.4076,3.4095,3.413,3.418,3.4217,3.4261,3.4277,3.4311,3.4326,3.4374,3.436,3.4426,3.4402,3.4426,3.4444,3.4447,3.4455,3.4439,3.4473,3.4527,3.4535,3.446,3.4459,3.4458,0,3.3921,3.3998,3.4053,3.4076,3.4139,3.4164,3.4191,3.4234,3.4263,3.4306,3.4326,3.4373,3.4399,3.4435,3.4462,3.4449,3.4527,3.4514,3.4542,3.4542,3.4559,3.4558,3.4621,3.4571,3.4571,3.4571,3.4571,0,3.3969,3.4013,3.4062,3.4096,3.4146,3.4177,3.4226,3.4254,3.4292,3.4332,3.4349,3.4385,3.4419,3.4459,3.4481,3.4534,3.4544,3.4559,3.4565,3.4559,3.4558,3.4577,3.4576,3.4573,3.4572,3.4572,3.4572,0,3.3996,3.403,3.4091,3.4147,3.4161,3.4197,3.4244,3.4277,3.4303,3.4353,3.4366,3.4407,3.4456,3.4487,3.4548,3.4563,3.4622,3.4625,3.4608,3.4611,3.4638,3.4636,3.4717,3.473,3.4669,3.467,3.467,0,3.4025,3.4061,3.412,3.4149,3.4177,3.4222,3.4253,3.4284,3.4316,3.437,3.4397,3.4447,3.449,3.4567,3.4601,3.4649,3.4655,3.468,3.4662,3.4656,3.4658,3.4657,3.4661,3.4683,3.4684,3.4684,3.4684,0,3.4074,3.409,3.4135,3.4186,3.4223,3.4265,3.4306,3.4328,3.4366,3.44,3.4452,3.4485,3.4549,3.4599,3.465,3.4677,3.4688,3.469,3.4699,3.4695,3.4685,3.4693,3.4618,3.4688,3.4688,3.4687,3.4687,3.4687,3.4105,3.4139,3.4187,3.4237,3.4271,3.431,3.4345,3.4377,3.4421,3.4477,3.4492,3.4546,3.4591,3.466,3.4688,3.4731,3.4728,3.474,3.4744,3.4748,3.475,3.4676,3.474,3.474,3.474,3.4739,3.4739,0,3.4157,3.419,3.4235,3.4294,3.4334,3.4341,3.4388,3.442,3.4468,3.4509,3.4551,3.4611,3.466,3.4699,3.475,3.4777,3.4783,3.4789,3.4789,3.4795,3.4748,3.4736,3.4783,3.4783,3.4783,3.4783,3.4783,3.4783,3.4189,3.4247,3.4269,3.4344,3.4376,3.4431,3.4457,3.4493,3.4526,3.4593,3.4635,3.4661,3.4701,3.4755,3.4801,3.4811,3.483,3.4835,3.4847,3.4803,3.4798,3.4793,3.4783,3.4839,3.4839,3.4891,3.4891,3.4891]}]]